| time (UTC) | temp C | wind direction | speed KPH | gust KPH | rain 1hr cm | rain 24hr cm | rain mn cm | humidity % | barometer mb |
| 20260509024514 | 16 | 249 | 6.4 | 17.7 | 0.00 | 0.00 | 0.00 | 92 | 1013.1 |
| 20260509023012 | 17 | 256 | 4.8 | 14.5 | 0.00 | 0.00 | 0.00 | 91 | 1013.0 |
| 20260509021511 | 17 | 266 | 3.2 | 12.9 | 0.00 | 0.00 | 0.00 | 90 | 1012.9 |
| 20260509020011 | 17 | 246 | 8.0 | 14.5 | 0.00 | 0.00 | 0.00 | 89 | 1012.9 |
| 20260509014510 | 18 | 242 | 8.0 | 17.7 | 0.00 | 0.00 | 0.00 | 88 | 1012.9 |
| 20260509013008 | 18 | 249 | 8.0 | 16.1 | 0.00 | 0.00 | 0.00 | 87 | 1012.9 |
| 20260509011509 | 18 | 208 | 8.0 | 14.5 | 0.00 | 0.00 | 0.00 | 86 | 1012.9 |
| 20260509010016 | 18 | 224 | 8.0 | 16.1 | 0.00 | 0.00 | 0.00 | 85 | 1012.9 |
| 20260509004507 | 18 | 207 | 8.0 | 16.1 | 0.00 | 0.00 | 0.00 | 85 | 1012.9 |
| 20260509003010 | 18 | 228 | 8.0 | 17.7 | 0.00 | 0.00 | 0.00 | 84 | 1012.9 |
| 20260509001504 | 18 | 257 | 11.3 | 16.1 | 0.00 | 0.00 | 0.00 | 84 | 1013.0 |
| 20260509000002 | 20 | 259 | 6.4 | 14.5 | 0.00 | 0.00 | 0.00 | 83 | 1013.0 |
| 20260508234601 | 19 | 256 | 6.4 | 14.5 | 0.00 | 0.00 | 0.00 | 84 | 1013.1 |
| 20260508233059 | 19 | 256 | 8.0 | 17.7 | 0.00 | 0.00 | 0.00 | 83 | 1013.3 |
| 20260508231557 | 19 | 252 | 6.4 | 19.3 | 0.00 | 0.00 | 0.00 | 83 | 1013.3 |
| 20260508230100 | 19 | 294 | 8.0 | 14.5 | 0.00 | 0.00 | 0.00 | 83 | 1013.4 |
| 20260508224553 | 19 | 264 | 8.0 | 16.1 | 0.00 | 0.00 | 0.00 | 83 | 1013.7 |
| 20260508223055 | 20 | 290 | 6.4 | 16.1 | 0.00 | 0.00 | 0.00 | 81 | 1013.9 |
| 20260508221549 | 20 | 205 | 8.0 | 16.1 | 0.00 | 0.00 | 0.00 | 80 | 1014.1 |
| 20260508220049 | 20 | 266 | 6.4 | 19.3 | 0.00 | 0.00 | 0.00 | 83 | 1014.2 |
| 20260508214554 | 20 | 239 | 4.8 | 14.5 | 0.00 | 0.00 | 0.00 | 82 | 1014.3 |
| 20260508213045 | 20 | 258 | 4.8 | 14.5 | 0.00 | 0.00 | 0.00 | 81 | 1014.4 |
| 20260508211544 | 20 | 225 | 8.0 | 14.5 | 0.00 | 0.00 | 0.00 | 80 | 1014.5 |
| 20260508210042 | 20 | 258 | 8.0 | 14.5 | 0.00 | 0.00 | 0.00 | 82 | 1014.7 |
| 20260508204544 | 19 | 257 | 6.4 | 14.5 | 0.00 | 0.00 | 0.00 | 83 | 1014.7 |
| 20260508203037 | 19 | 328 | 8.0 | 14.5 | 0.00 | 0.00 | 0.00 | 83 | 1015.0 |
| 20260508201538 | 19 | 201 | 6.4 | 12.9 | 0.00 | 0.00 | 0.00 | 83 | 1015.1 |
| 20260508200034 | 19 | 248 | 6.4 | 12.9 | 0.00 | 0.00 | 0.00 | 84 | 1015.3 |
| 20260508194531 | 18 | 226 | 4.8 | 14.5 | 0.00 | 0.00 | 0.00 | 86 | 1015.4 |
| 20260508193029 | 18 | 280 | 4.8 | 11.3 | 0.00 | 0.00 | 0.00 | 87 | 1015.5 |
| 20260508191532 | 18 | 229 | 6.4 | 11.3 | 0.00 | 0.00 | 0.00 | 88 | 1015.6 |
| 20260508190029 | 17 | 251 | 4.8 | 11.3 | 0.00 | 0.00 | 0.00 | 89 | 1015.8 |
| 20260508184528 | 17 | 283 | 6.4 | 11.3 | 0.00 | 0.00 | 0.00 | 89 | 1016.0 |
| 20260508183024 | 17 | 207 | 3.2 | 8.0 | 0.00 | 0.00 | 0.00 | 90 | 1016.0 |
| 20260508181524 | 17 | 290 | 3.2 | 11.3 | 0.00 | 0.00 | 0.00 | 90 | 1016.0 |
| 20260508180025 | 17 | 243 | 3.2 | 8.0 | 0.00 | 0.00 | 0.00 | 90 | 1016.2 |
| 20260508174520 | 17 | 252 | 3.2 | 9.7 | 0.00 | 0.00 | 0.00 | 89 | 1016.2 |
| 20260508173018 | 17 | 136 | 1.6 | 6.4 | 0.00 | 0.00 | 0.00 | 89 | 1016.1 |
| 20260508171517 | 17 | 131 | 3.2 | 6.4 | 0.00 | 0.00 | 0.00 | 89 | 1016.1 |
| 20260508170017 | 17 | 149 | 0.0 | 4.8 | 0.00 | 0.00 | 0.00 | 90 | 1016.2 |
| 20260508164513 | 17 | 134 | 3.2 | 6.4 | 0.00 | 0.00 | 0.00 | 90 | 1016.2 |
| 20260508163010 | 17 | 134 | 0.0 | 4.8 | 0.00 | 0.00 | 0.00 | 91 | 1016.1 |
| 20260508161509 | 17 | 156 | 0.0 | 1.6 | 0.00 | 0.00 | 0.00 | 92 | 1016.0 |
| 20260508160012 | 16 | 129 | 1.6 | 6.4 | 0.00 | 0.00 | 0.00 | 92 | 1016.1 |
| 20260508154506 | 16 | 156 | 0.0 | 3.2 | 0.00 | 0.00 | 0.00 | 92 | 1016.0 |
| 20260508153005 | 16 | 157 | 1.6 | 3.2 | 0.00 | 0.00 | 0.00 | 93 | 1016.1 |
| 20260508151503 | 16 | 109 | 1.6 | 4.8 | 0.00 | 0.00 | 0.00 | 93 | 1016.2 |
| 20260508150004 | 16 | 109 | 0.0 | 4.8 | 0.00 | 0.00 | 0.00 | 93 | 1016.3 |
| 20260508143106 | 16 | 159 | 0.0 | 6.4 | 0.00 | 0.00 | 0.00 | 93 | 1016.1 |
| 20260508141606 | 16 | 165 | 1.6 | 4.8 | 0.00 | 0.00 | 0.00 | 93 | 1016.0 |
| 20260508140058 | 16 | 172 | 1.6 | 4.8 | 0.00 | 0.00 | 0.00 | 93 | 1015.9 |
| 20260508134556 | 16 | 162 | 1.6 | 9.7 | 0.00 | 0.00 | 0.00 | 93 | 1015.8 |
| 20260508133059 | 16 | 165 | 1.6 | 6.4 | 0.00 | 0.00 | 0.00 | 94 | 1015.9 |
| 20260508131556 | 16 | 82 | 1.6 | 6.4 | 0.00 | 0.00 | 0.00 | 94 | 1015.7 |
| 20260508130100 | 16 | 193 | 1.6 | 8.0 | 0.00 | 0.00 | 0.00 | 94 | 1015.6 |
| 20260508124553 | 16 | 125 | 1.6 | 6.4 | 0.00 | 0.00 | 0.00 | 94 | 1015.5 |
| 20260508123054 | 16 | 169 | 1.6 | 8.0 | 0.00 | 0.00 | 0.00 | 94 | 1015.4 |
| 20260508121605 | 16 | 105 | 3.2 | 6.4 | 0.00 | 0.00 | 0.00 | 94 | 1015.3 |
| 20260508120052 | 16 | 114 | 1.6 | 6.4 | 0.00 | 0.00 | 0.00 | 94 | 1015.2 |
| 20260508114554 | 16 | 136 | 0.0 | 6.4 | 0.00 | 0.00 | 0.00 | 94 | 1015.2 |
| 20260508113051 | 16 | 115 | 0.0 | 9.7 | 0.00 | 0.00 | 0.00 | 94 | 1015.2 |
| 20260508111550 | 16 | 82 | 3.2 | 9.7 | 0.00 | 0.00 | 0.00 | 94 | 1015.1 |
| 20260508110054 | 16 | 103 | 1.6 | 4.8 | 0.00 | 0.00 | 0.00 | 94 | 1015.1 |
| 20260508104548 | 16 | 91 | 4.8 | 8.0 | 0.00 | 0.00 | 0.00 | 94 | 1015.1 |
| 20260508103051 | 16 | 200 | 3.2 | 9.7 | 0.00 | 0.00 | 0.00 | 94 | 1015.1 |
| 20260508101547 | 16 | 99 | 0.0 | 4.8 | 0.00 | 0.00 | 0.00 | 94 | 1015.1 |
| 20260508100046 | 16 | 110 | 1.6 | 8.0 | 0.00 | 0.00 | 0.00 | 94 | 1015.2 |
| 20260508094557 | 16 | 150 | 0.0 | 4.8 | 0.00 | 0.00 | 0.00 | 94 | 1015.1 |
| 20260508093045 | 16 | 117 | 1.6 | 6.4 | 0.00 | 0.00 | 0.00 | 94 | 1015.2 |
| 20260508091543 | 16 | 96 | 0.0 | 3.2 | 0.00 | 0.00 | 0.00 | 93 | 1015.2 |
| 20260508090042 | 16 | 162 | 0.0 | 4.8 | 0.00 | 0.00 | 0.00 | 93 | 1015.4 |
| 20260508084539 | 16 | 120 | 1.6 | 6.4 | 0.00 | 0.00 | 0.00 | 93 | 1015.5 |
| 20260508083115 | 16 | 96 | 0.0 | 1.6 | 0.00 | 0.00 | 0.00 | 93 | 1015.6 |
| 20260508081541 | 16 | 93 | 1.6 | 4.8 | 0.00 | 0.00 | 0.00 | 93 | 1015.7 |
| 20260508080037 | 16 | 129 | 0.0 | 1.6 | 0.00 | 0.00 | 0.00 | 93 | 1015.8 |
| 20260508074537 | 16 | 134 | 0.0 | 3.2 | 0.00 | 0.00 | 0.00 | 93 | 1015.8 |
| 20260508073034 | 16 | 201 | 0.0 | 4.8 | 0.00 | 0.00 | 0.00 | 94 | 1016.0 |
| 20260508071535 | 16 | 210 | 0.0 | 4.8 | 0.00 | 0.00 | 0.00 | 94 | 1015.9 |
| 20260508070030 | 16 | 140 | 0.0 | 4.8 | 0.00 | 0.00 | 0.00 | 94 | 1015.9 |
| 20260508064544 | 16 | 215 | 0.0 | 6.4 | 0.00 | 0.00 | 0.00 | 94 | 1015.9 |
| 20260508063033 | 16 | 204 | 0.0 | 6.4 | 0.00 | 0.00 | 0.00 | 95 | 1015.8 |
| 20260508061531 | 16 | 257 | 1.6 | 4.8 | 0.00 | 0.00 | 0.00 | 95 | 1015.8 |
| 20260508060027 | 15 | 242 | 3.2 | 6.4 | 0.00 | 0.00 | 0.00 | 95 | 1015.8 |
| 20260508054526 | 16 | 239 | 1.6 | 6.4 | 0.00 | 0.00 | 0.00 | 95 | 1015.9 |
| 20260508053027 | 16 | 277 | 1.6 | 9.7 | 0.00 | 0.00 | 0.00 | 95 | 1015.9 |
| 20260508051527 | 16 | 248 | 1.6 | 8.0 | 0.00 | 0.00 | 0.00 | 95 | 1015.8 |
| 20260508050028 | 16 | 262 | 0.0 | 6.4 | 0.00 | 0.00 | 0.00 | 95 | 1015.8 |
| 20260508044524 | 16 | 238 | 3.2 | 8.0 | 0.00 | 0.00 | 0.00 | 95 | 1015.7 |
| 20260508043024 | 16 | 207 | 3.2 | 6.4 | 0.00 | 0.00 | 0.00 | 95 | 1015.5 |
| 20260508041522 | 16 | 187 | 1.6 | 8.0 | 0.00 | 0.00 | 0.00 | 94 | 1015.2 |
| 20260508040021 | 16 | 271 | 1.6 | 6.4 | 0.00 | 0.00 | 0.00 | 94 | 1015.0 |
| 20260508034521 | 16 | 249 | 1.6 | 11.3 | 0.00 | 0.00 | 0.00 | 94 | 1014.9 |
| 20260508033021 | 16 | 240 | 3.2 | 9.7 | 0.00 | 0.00 | 0.00 | 93 | 1014.7 |
| 20260508031519 | 16 | 233 | 1.6 | 9.7 | 0.00 | 0.00 | 0.00 | 93 | 1014.5 |
| 20260508030021 | 16 | 305 | 6.4 | 12.9 | 0.00 | 0.00 | 0.00 | 92 | 1014.3 |